Location: Cazarilh
(42.9578°N, 0.5819°E)
Time: 21:16:22
(UTC+00:00)

Helios 1A Rocket - Pass Details

Date: 11 December 2019
Orbit: 563 x 587 km, 98.3° (Epoch: 17 January)

Event Time Altitude Azimuth Distance (km) Brightness Sun altitude
Rises 05:12:45 0° 20° (NNE) 2,772 6.5 -22.1°
Reaches altitude 10° 05:15:00 10° 28° (NNE) 1,868 5.7 -21.7°
Maximum altitude 05:18:49 41° 99° (E) 832 4.2 -21.1°
Drops below altitude 10° 05:22:37 10° 170° (S) 1,851 5.8 -20.4°
Sets 05:24:50 0° 178° (S) 2,743 6.6 -20.0°
